Race Coverage Navigation

TS # 32 / Camdenton, MO  2019

 


TS STATS
TS Distance 49.11 
Total Distance 1893.32 
Miles To Go 1176.96 
TS Climbing 1844 
Total Climbing
TS  Elevation
TS  Net Elevation 2931 
Map Filename Open Map 
Directions Filename  
Latitude 38.01 
Longitude -92.74 
Google Map  TimeStation Map 


TS Arrival Data
Arr Ord  #/Name Arrival DT TS Dst Avg This TS Avg Overall
 1 377 - Christoph Strasser  06/16/2019 10:53 49.11  17.97  16.57 
 2 288 - Dave Haase  06/17/2019 1:31 49.11  14.66  14.69 
 3 279 - Marko Baloh  06/17/2019 5:35 49.11  5.57  14.24 
 4 609 - Jakob Olsen  06/17/2019 6:23 49.11  13.77  14.13 
 5 617 - SOLO.kiwi (Craig Harper)  06/17/2019 16:56 49.11  8.42  13.08 
 6 329 - Peter Oyler  06/17/2019 20:05 49.11  11.65  12.84 
 7 612 - Markus K. Brandl  06/17/2019 20:46 49.11  9.07  12.75 
 8 367 - Daniela Genovesi  06/17/2019 22:55 49.11  12.38  12.56 
 9 622 - Thomas Odom-Team Kyle Pease Foundation  06/17/2019 23:05 49.11  12.49  12.55 
 10 416 - Leah Goldstein  06/17/2019 23:12 49.11  16.93  12.53 
 11 529 - Isa Pulver  06/18/2019 0:04 49.11  13.9  12.46 
 12 623 - Ultra Paka Racing Team (Daniel Polman)  06/18/2019 1:37 49.11  13.27  12.34 
 13 615 - Philipp Amhof  06/18/2019 7:20 49.11  13.15  11.9 
 14 603 - Alan Bradley  06/18/2019 9:36 49.11  8.57  11.74 
 15 611 - Marcelo Soares " MIXIRICA "  06/18/2019 12:35 49.11  11.51  11.53 
 16 559 - Team Martin RAAM 2019 (Martin Bergmeister)  06/18/2019 14:37 49.11  14.96  11.39 
 17 510 - John C. Tarlton  06/18/2019 15:06 49.11  13.33  11.36 
 18 442 - Joe Barr  06/18/2019 16:36 49.11  13.15  11.26 
 19 411 - Geoff Brunner  06/18/2019 16:49 49.11  12.38  11.25 
 20 568 - Alexandra Meixner  06/18/2019 17:08 49.11  11.47  11.2 
 21 604 - Chieko Ozawa  06/18/2019 18:18 49.11  9.69  11.12 
 22 610 - Kabir Rachure  06/18/2019 20:46 49.11  12.92  10.98 
 23 T411 - team alpha - tischlerei groemmer  06/19/2019 2:17 49.11  20.46  22.83 
 24 T800 - Backstedt Racing Project 14  06/19/2019 2:25 49.11  22.32  22.83 
 25 399 - Valerio Zamboni  06/19/2019 3:46 49.11  11.16  10.57 
 26 618 - GREGORY ROBINSON  06/19/2019 6:54 49.11  6.48  10.36 
 27 T404 - Gentlemen of speed  06/19/2019 7:02 49.11  20.9  21.56 
 28 T401 - Data Techniques powered by Networks Centre  06/19/2019 7:58 49.11  17.33  21.33 
 29 424 - Team i RON man Veterans supporting Veterans  06/19/2019 9:28 49.11  9.69  10.24 
 30 161 - Seana Hogan  06/19/2019 11:28 49.11  12.08  10.11 
 31 T805 - Team Oceanside  06/19/2019 12:28 49.11  22.32  20.38 
 32 T201 - EAT WELL  06/19/2019 13:14 49.11  19.39  20.1 
 33 T407 - Julian Becker   06/19/2019 13:22 49.11  20.32  20.12 
 34 T807 - Team ZOE International  06/19/2019 13:33 49.11  19.91  20.15 
 35 T802 - Scorchers  06/19/2019 14:57 49.11  22.32  19.84 
 36 T416 - Team Rotary Raams Polio  06/19/2019 16:08 49.11  21.67  19.58 
 37 T804 - Team FSHD Skyland Trail  06/19/2019 16:41 49.11  31.35  19.49 
 38 T408 - Radeln-fuer-Kinder (Cycling-for-Kids)  06/19/2019 17:09 49.11  21.51  19.35 
 39 608 - Elin Starup  06/19/2019 18:10 49.11  9.27  9.75 
 40 T400 - Cantastic4  06/19/2019 18:18 49.11  19.26  19.1 
 41 T808 - Antonia's Friends 2019  06/19/2019 19:13 49.11  21.2  19.01 
 42 T406 - Operation Walk Midwest  06/19/2019 19:59 49.11  20.32  18.8 
 43 T412 - Team Aspect  06/19/2019 20:51 49.11  25.4  18.66 
 44 T418 - The Opportunists  06/19/2019 21:35 49.11  21.2  18.54 
 45 T410 - Soap-Aid  06/20/2019 0:36 49.11  17.97  17.99 
 46 T414 - Brazil Nuts  06/20/2019 2:47 49.11  17.33  17.63 
 47 T405 - High Rollers  06/20/2019 3:47 49.11  17.86  17.44 
 48 T803 - Team EndoPark  06/20/2019 3:53 49.11  17.75  17.47 
 49 T202 - Integra Medical - BAA Racing  06/20/2019 4:09 49.11  17.13  17.35 
 50 T415 - TEAM FIRE VELO 935  06/20/2019 5:58 49.11  14.03  17.13 
 51 T403 - EKJ Denmark  06/20/2019 7:28 49.11  15.76  16.87 
 52 T206 - Project Linear Acceleration  06/20/2019 7:28 49.11  14.52  16.85 
 53 T204 - Lucan CRC  06/20/2019 7:40 49.11  15.35  16.81 
 54 T413 - TEAM BRASIL - SKIPPER  06/20/2019 8:53 49.11  14.23  16.68 
 55 T402 - EA/WFP RAAM Team  06/20/2019 9:32 49.11  15.11  16.56 
 56 T806 - Team SuperMarrow  06/20/2019 9:59 49.11  17.03  16.55 
 57 T801 - Mind Over Matter  06/20/2019 10:29 49.11  16.93  16.47 
 58 T417 - Team4RAAM 2019 powered by TGW Living Logistics  06/20/2019 12:31 49.11  18.3  16.17 
 59 T200 - AIR RELAX GoPro TEAM BRASIL  06/20/2019 12:33 49.11  18.53  16.11 
 60 T409 - Serpentine Golden Girls  06/20/2019 21:48 49.11  13.9  14.97 
 61 T203 - JPsDuo  06/21/2019 1:14 49.11  12.98  14.54 
 62 T207 - Team Life Time  06/21/2019 3:39 49.11  12.49  14.29 
 63 T205 - Prevent Breast Cancer powered by Endomag  06/21/2019 7:36 49.11  15.03  13.87 
 64 T210 - Bike Wine Team  06/21/2019 7:38 49.11  12.38  13.87